Wreay, United Kingdom

11:19 PM BST on June 20, 2019 (GMT +0100)
Wreay

Weather History for 03222 - December, 2008

Change the Weather History Date:

Wednesday, December 17, 2008

  Actual Average Record
Temperature  
Mean Temperature 42 °F -  
Max Temperature 46 °F 42 °F - ()
Min Temperature 37 °F 37 °F - ()
Degree Days  
Heating Degree Days 24    
Moisture  
Dew Point 40 °F    
Average Humidity 89    
Maximum Humidity 93    
Minimum Humidity 81    
Precipitation  
Precipitation 0.00 in - - ()
Sea Level Pressure  
Sea Level Pressure 29.78 in    
Wind  
Wind Speed 12 mph ()    
Max Wind Speed 23 mph    
Max Gust Speed 32 mph    
Visibility 6.1 miles    
Events Rain    
T = Trace of Precipitation, MM = Missing Value Source: Averaged Metar Reports

Daily Weather History Graph

Daily Weather History Graph

Search for Another Location

Airport or City:

Astronomy

Dec. 17, 2008 Rise Set
Actual Time 8:32 AM GMT 3:44 PM GMT
Civil Twilight 7:46 AM GMT 4:29 PM GMT
Nautical Twilight 6:59 AM GMT 5:16 PM GMT
Astronomical Twilight 6:14 AM GMT 6:01 PM GMT
Moon 10:22 PM GMT (12/17) 11:30 AM GMT (12/17)
Length of Visible Light 8h 42m
Length of Day
7h 11m
Waning Gibbous, 70% of the Moon is Illuminated
Dec 17
Waning Gibbous
Dec 19
Last Quarter
Dec 27
New
Jan 4
First Quarter
Jan 11
Full

Hourly Weather History & Observations

Time (GMT) Temp. Windchill Dew Point Humidity Pressure Visibility Wind Dir Wind Speed Gust Speed Precip Events Conditions
8:50 AM 37.4 °F 30.8 °F 35.6 °F 93% 29.83 in 6.2 mi SW 9.2 mph - N/A   Scattered Clouds
9:20 AM 37.4 °F 30.8 °F 35.6 °F 93% 29.83 in 6.2 mi SW 9.2 mph - N/A   Scattered Clouds
9:50 AM 39.2 °F 33.0 °F 37.4 °F 93% 29.83 in 6.2 mi SSW 9.2 mph - N/A   Partly Cloudy
10:20 AM 41.0 °F 35.2 °F 37.4 °F 87% 29.83 in 6.2 mi SSW 9.2 mph - N/A   Partly Cloudy
10:50 AM 42.8 °F 36.6 °F 39.2 °F 87% 29.83 in 6.2 mi SW 11.5 mph - N/A   Scattered Clouds
11:20 AM 42.8 °F 36.2 °F 39.2 °F 87% 29.83 in 6.2 mi WSW 12.7 mph - N/A   Scattered Clouds
11:50 AM 42.8 °F 34.8 °F 39.2 °F 87% 29.83 in 6.2 mi SW 17.3 mph - N/A   Scattered Clouds
12:20 PM 42.8 °F 35.4 °F 39.2 °F 87% 29.80 in 6.2 mi SW 15.0 mph - N/A   Scattered Clouds
12:50 PM 42.8 °F 35.1 °F 39.2 °F 87% 29.80 in 6.2 mi SW 16.1 mph - N/A   Scattered Clouds
1:20 PM 44.6 °F 37.4 °F 39.2 °F 81% 29.80 in 6.2 mi SW 16.1 mph - N/A   Scattered Clouds
1:50 PM 42.8 °F 34.8 °F 39.2 °F 87% 29.80 in 6.2 mi WSW 17.3 mph - N/A   Scattered Clouds
2:20 PM 42.8 °F 34.8 °F 39.2 °F 87% 29.77 in 6.2 mi SW 17.3 mph - N/A   Scattered Clouds
2:50 PM 44.6 °F 37.2 °F 39.2 °F 81% 29.77 in 6.2 mi SW 17.3 mph - N/A Rain Light Rain
3:20 PM 42.8 °F 33.8 °F 41.0 °F 93% 29.77 in 5.6 mi WSW 21.9 mph - N/A Rain Light Rain
3:50 PM 42.8 °F 33.8 °F 41.0 °F 93% 29.77 in 5.6 mi WSW 21.9 mph - N/A   Scattered Clouds
4:20 PM 44.6 °F 36.6 °F 41.0 °F 87% 29.74 in 5.6 mi SW 19.6 mph - N/A   Scattered Clouds
4:50 PM 44.6 °F 36.9 °F 42.8 °F 93% 29.74 in 5.6 mi SW 18.4 mph 32.2 mph N/A   Scattered Clouds
5:20 PM 44.6 °F 35.9 °F 42.8 °F 93% 29.71 in 6.2 mi WSW 23.0 mph - N/A   Scattered Clouds
5:50 PM 46.4 °F 38.3 °F 42.8 °F 87% 29.71 in 6.2 mi WSW 23.0 mph - N/A   Scattered Clouds
6:20 PM 46.4 °F 38.7 °F 44.6 °F 93% 29.71 in 6.2 mi WSW 20.7 mph - N/A   Scattered Clouds